{"data":{"norad_id":55459,"intl_designator":"2023-015L","name":"STARLINK-5669","alt_names":[],"object_type":"PAYLOAD","status":"ACTIVE","operator":null,"country":"US","launch_date":"2023-02-02","launch_site_code":"AFETR","launch_vehicle":null,"mission":null,"orbit_class":"UNKNOWN","rcs_meters":null,"size_class":null,"mass_kg":null,"dimensions":null,"purposes":["comms"],"wikipedia_slug":null,"has_3d_model":false,"image_url":null,"decayed_at":null,"tle_current":{"epoch":"2026-05-25T00:15:03.108960Z","epoch_age_seconds":81022,"freshness":"FRESH","line1":"1 55459U 23015L   26145.01045265 -.00001063  00000+0 -29110-4 0  9998","line2":"2 55459  43.0038 257.7604 0001100 271.1126  88.9599 15.27584446182398","mean_motion":15.27584446,"eccentricity":0.00011,"inclination_deg":43.0038,"raan_deg":257.7604,"arg_perigee_deg":271.1126,"mean_anomaly_deg":88.9599,"bstar":-2.911e-5,"rev_number":18239,"period_min":94.26647435241,"perigee_km":482.28105414236,"apogee_km":483.79051215465,"semimajor_km":6861.1727831485,"source":"CELESTRAK","updated_at":"2026-05-25T13:38:17.804338Z"}}}